星链-35957(STARLINK-35957)

导读

STARLINK-35957是由美国于2025年12月31日发射的星链卫星,星链是太空探索技术公司打造的大型卫星星座,旨在为全球用户提供高速低延迟的宽带互联网服务,该卫星属于星链组网进程中发射的卫星之一,助力星链完成全球覆盖布局,进一步拓展卫星互联网的服务范围与覆盖能力。

基本信息
目录编号:
66823
目录名称:
STARLINK-35957
国际标识:
2025-280C
轨道中心:
EARTH
卫星名称:
星链-35957
卫星全名:
星链-35957(STARLINK-35957)
卫星状态:
在轨 (已飞行193 天)
发射日期:
2025-12-02 UTC
国别 :
美国 (US)
星等 :
--
轨道信息
数据来源 国际轨道数据 AOE轨道数据
星历时间 2026-06-13T04:32:13+0800
11小时前
查看轨道信息
2026-06-11T03:00:00+0800
2天前
查看轨道信息
半长轴 6950.162km 6950.225km
偏心率 0.0002591 0.0002936
轨道倾角 70.001° 70.001°
近地点辐角 270.591° 270.679°
升交点赤经 94.398° 99.602°
平近点角 89.495° 119.086°
近地点 570.224km 570.047km
远地点 573.826km 574.129km
周期 96.106分钟 96.108分钟
每日圈数 14.983402 14.983199
详细信息
固有亮度:
5
最大亮度:
2.5
卫星平台:
Starlink V1.0
覆盖范围:
全球
运营商:
太空探索技术公司
运营商所在国:
美国
制造商(研发单位):
太空探索技术公司
制造商所在国:
美国
使用方式:
暂无
卫星简介
Starlink 计划是 SpaceX 推出的全球卫星互联网项目,通过发射低轨道卫星,为全球尤其是偏远地区提供高速、低延迟的互联网服务。自 2019 年起,Starlink 已部署数千颗卫星,旨在缩小全球数字鸿沟,推动互联网普及。该项目还为军事、航空等行业提供通信支持,带来广泛经济效益。
2D轨道图
3D轨道图
轨道高度分析图
轨道倾角分析图
轨道综合分析图
查看轨道综合分析图